Weather History for Pensacola, FL

Change the Weather History Date:

Thursday, January 3, 2013

  Actual Average Record
Temperature  
Mean Temperature 43 °F 51 °F  
Max Temperature 47 °F 60 °F 78 °F (1997)
Min Temperature 39 °F 42 °F 18 °F (1928)
Degree Days  
Heating Degree Days 22 14  
Month to date heating degree days 33 42  
Since 1 July heating degree days 477 624  
Cooling Degree Days 0 0  
Month to date cooling degree days 1 0  
Year to date cooling degree days 1 0  
Moisture  
Dew Point 39 °F    
Average Humidity 83    
Maximum Humidity 96    
Minimum Humidity 70    
Precipitation  
Precipitation 0.34 in 0.14 in 1.71 in (1942)
Month to date precipitation 0.35 0.41  
Year to date precipitation 0.35 0.41  
Snow  
Snow 0.00 in 0.00 in T in (2002)
Month to date snowfall 0.0 0.0  
Since 1 July snowfall 0.0 0.0  
Snow Depth 0.00 in    
Sea Level Pressure  
Sea Level Pressure 30.25 in    
Wind  
Wind Speed 9 mph (North)    
Max Wind Speed 16 mph    
Max Gust Speed 22 mph    
Visibility 9 miles    
Events Rain    
T = Trace of Precipitation, MM = Missing Value Source: NWS Daily Summary

Daily Weather History Graph

Daily Weather History Graph

Search for Another Location

Airport:

Trip Planner

Search our weather history database for the weather conditions in past years. The results will help you decide how hot, cold, wet, or windy it might be!

Date:

Astronomy

Jan. 03, 2013 Rise Set
Actual Time 6:46 AM CST 5:00 PM CST
Civil Twilight 6:19 AM CST 5:27 PM CST
Nautical Twilight 5:50 AM CST 5:57 PM CST
Astronomical Twilight 5:20 AM CST 6:26 PM CST
Moon 11:06 PM CST (1/3) 10:24 AM CST (1/3)
Length of Visible Light 11h 07m
Length of Day
10h 14m
Waning Gibbous, 65% of the Moon is Illuminated
Jan 3
Waning Gibbous
Jan 4
Last Quarter
Jan 11
New
Jan 18
First Quarter
Jan 26
Full

Hourly Weather History & Observations

Time (CST) Temp. Windchill Dew Point Humidity Pressure Visibility Wind Dir Wind Speed Gust Speed Precip Events Conditions
12:53 AM 46.0 °F 41.0 °F 43.0 °F 89% 30.19 in 5.0 mi North 10.4 mph - 0.02 in Rain Rain
1:42 AM 44.6 °F 39.7 °F 42.8 °F 93% 30.18 in 7.0 mi North 9.2 mph - 0.03 in Rain Light Rain
1:53 AM 45.0 °F 40.1 °F 42.1 °F 90% 30.18 in 7.0 mi North 9.2 mph - 0.03 in Rain Light Rain
2:53 AM 45.0 °F 41.2 °F 42.1 °F 90% 30.20 in 7.0 mi North 6.9 mph - 0.05 in Rain Light Rain
3:46 AM 44.6 °F 41.4 °F 42.8 °F 93% 30.18 in 7.0 mi North 5.8 mph - 0.04 in Rain Light Rain
3:53 AM 44.1 °F 40.1 °F 42.1 °F 93% 30.19 in 7.0 mi North 6.9 mph - 0.05 in Rain Light Rain
4:06 AM 44.6 °F 40.7 °F 42.8 °F 93% 30.18 in 7.0 mi North 6.9 mph - 0.01 in Rain Light Rain
4:22 AM 44.6 °F 40.2 °F 42.8 °F 93% 30.19 in 6.0 mi NNW 8.1 mph - 0.03 in Rain Rain
4:53 AM 44.1 °F 39.0 °F 42.1 °F 93% 30.20 in 8.0 mi North 9.2 mph - 0.06 in Rain Light Rain
5:53 AM 44.1 °F 38.6 °F 41.0 °F 89% 30.22 in 10.0 mi North 10.4 mph - 0.02 in Rain Light Rain
6:53 AM 44.1 °F 40.1 °F 41.0 °F 89% 30.22 in 10.0 mi North 6.9 mph - 0.01 in Rain Light Rain
7:25 AM 44.6 °F 40.2 °F 41.0 °F 87% 30.22 in 10.0 mi North 8.1 mph - 0.00 in Rain Light Rain
7:53 AM 43.0 °F 37.2 °F 41.0 °F 93% 30.24 in 7.0 mi North 10.4 mph - 0.03 in Rain Light Rain
8:53 AM 43.0 °F 36.0 °F 41.0 °F 93% 30.27 in 10.0 mi North 13.8 mph 20.7 mph 0.05 in Rain Light Rain
9:53 AM 44.1 °F 38.6 °F 41.0 °F 89% 30.26 in 10.0 mi NNE 10.4 mph - 0.02 in Rain Light Rain
10:53 AM 45.0 °F 39.3 °F 41.0 °F 86% 30.26 in 10.0 mi North 11.5 mph - 0.00 in   Overcast
11:53 AM 46.0 °F 40.2 °F 39.9 °F 79% 30.24 in 10.0 mi NNW 12.7 mph - N/A   Overcast
12:53 PM 46.9 °F - 39.9 °F 77% 30.23 in 10.0 mi North 9.2 mph - N/A   Overcast
1:53 PM 45.0 °F 38.9 °F 39.0 °F 80% 30.22 in 10.0 mi North 12.7 mph - N/A   Overcast
2:53 PM 46.0 °F 40.6 °F 39.0 °F 76% 30.24 in 10.0 mi North 11.5 mph 17.3 mph N/A   Overcast
3:53 PM 46.0 °F 41.4 °F 37.0 °F 71% 30.25 in 10.0 mi North 9.2 mph 18.4 mph N/A   Partly Cloudy
4:53 PM 45.0 °F 40.1 °F 36.0 °F 71% 30.27 in 10.0 mi North 9.2 mph - N/A   Clear
5:53 PM 44.1 °F 39.0 °F 36.0 °F 73% 30.30 in 10.0 mi North 9.2 mph - N/A   Clear
6:53 PM 43.0 °F 37.7 °F 36.0 °F 76% 30.31 in 10.0 mi North 9.2 mph - N/A   Clear
7:53 PM 42.1 °F 37.7 °F 34.0 °F 73% 30.34 in 10.0 mi North 6.9 mph - N/A   Clear
8:53 PM 39.9 °F 34.5 °F 33.1 °F 77% 30.34 in 10.0 mi North 8.1 mph - N/A   Clear
9:53 PM 39.9 °F 34.5 °F 30.9 °F 70% 30.35 in 10.0 mi North 8.1 mph - N/A   Clear
10:53 PM 39.0 °F 34.0 °F 30.0 °F 70% 30.34 in 10.0 mi North 6.9 mph - N/A   Clear
11:53 PM 39.0 °F 33.4 °F 28.9 °F 67% 30.34 in 10.0 mi North 8.1 mph - N/A   Clear